User: anonymous   Login
Location: Caltech
(34.1382°N, 118.1253°W)
Time: 13:27:11
(UTC-07:00)
Language:

Cosmos 2219 Rocket - Orbit

View from above orbital plane
View from above orbital plane
View from above satellite
View from above satellite

Ground track
Ground track

The orbit data is extracted from the following two-line orbital elements,

1 22220U 92076B   18109.55014823 +.00000218 +00000-0 +13368-3 0  9994
2 22220 070.9981 134.3627 0012575 176.3036 295.6988 14.16430281313820
Epoch (UTC): 19 April 2018 13:12:12
Eccentricity: 0.0012575
inclination: 70.9981°
perigee height: 828 km
apogee height: 846 km
right ascension of ascending node: 134.3627°
argument of perigee: 176.3036°
revolutions per day: 14.16430281
mean anomaly at epoch: 295.6988°
orbit number at epoch: 31382

The dashed part of the orbit path shows where the satellite is in the earth's shadow,  

DLR